User: anonymous   Login
Location: Kings Park
(40.8862°N, 73.2573°W)
Time: 12:01:39
(UTC+00:00)
Language:

NOAA 11 - Orbit

View from above orbital plane
View from above orbital plane
View from above satellite
View from above satellite

Ground track
Ground track

The orbit data is extracted from the following two-line orbital elements,

1 19531U 88089A   21018.87870655 -.00000032  00000-0  44828-5 0  9997
2 19531  98.4057  32.0644 0010457 218.0362 142.0075 14.15266406668039
Epoch (UTC): 18 January 2021 21:05:20
Eccentricity: 0.0010457
inclination: 98.4057°
perigee height: 834 km
apogee height: 849 km
right ascension of ascending node: 32.0644°
argument of perigee: 218.0362°
revolutions per day: 14.15266406
mean anomaly at epoch: 142.0075°
orbit number at epoch: 66803

The dashed part of the orbit path shows where the satellite is in the earth's shadow,  

DLR